Погода в Лонг-Бич

США     33°48′22″N   118°07′10″W
темп.,
°C
ветер,
м/с
пор.,
м/с
влажн.,
%
обл.,
%
осадки,
мм/ч
давл.,
гПа
погр.,
м
19 апреля, пн
пн1923:00+20юз12500 0.0 101556
02:00+19юв01510 0.0 101516
05:00+18юв11440 0.0 101511
08:00+19ю11450 0.0 101669
11:00+23юз21330 0.0 1016323
14:00+23юз553919 0.0 1015328
17:00+21юз56470 0.0 1013296
20:00+18ююз33620 0.0 1014200
20 апреля, вт
вт2023:00+17ююз23690 0.0 1014202
02:00+17ююв23720 0.0 1013170
05:00+16ююв46770 0.0 1012261
08:00+16ююв56720 0.0 1013369
11:00+19ююв67580 0.0 1013611
14:00+19ю78540 0.0 1012627
17:00+18ю776548 0.0 1010653
20:00+16ююв567461 0.0 1011722
21 апреля, ср
ср2123:00+15ююв677265 0.0 1011801
02:00+15юв787199 0.1 1011939
05:00+14ююв6770100 0.2 1011991
08:00+14юв5566100 0.1 1012965
11:00+15ююв556599 0.1 10131003
14:00+16ю446796 0.1 1013946
17:00+16ююз446660 0.1 1012972
20:00+15юз337463 0.0 1012559
22 апреля, чт
чт2223:00+15ююз347487 0.1 1013537
02:00+14ю3372100 0.1 1012481
05:00+14юз3372100 0.1 1012546
08:00+15ю2268100 0.0 1014550
11:00+17ююз335632 0.0 10141008
14:00+17юз545855 0.0 10141049
17:00+17юз546311 0.0 1012800
20:00+15юз43710 0.0 1013532
23 апреля, пт
пт2323:00+15юз33755 0.0 1014490
02:00+14ююз337852 0.0 1015549
05:00+14ю2273100 0.0 1015751
08:00+15ю2272100 0.1 1016561
11:00+15ююз337096 0.1 1016749
14:00+17юз5362100 0.0 1016787
17:00+16юз54653 0.0 1015674
20:00+14юз337443 0.0 1016581